Location: Roland
(31.1349°N, 85.4372°W)
Time: 04:56:01
(UTC+00:00)

Vanguard 2 Rocket - Pass Details

Date: 05 December 2021
Orbit: 554 x 3324 km, 32.9° (Epoch: 16 January)

Event Time Altitude Azimuth Distance (km) Brightness Sun altitude
Exits shadow 07:06:01 14° 166° (SSE) 5,954 10.9 -67.4°
Drops below altitude 10° 07:08:03 10° 162° (SSE) 6,275 11.1 -67.0°
Sets 07:13:58 0° 153° (SSE) 7,247 11.6 -65.8°
